Stations météo

réclame
Mon MeteoGroup
Biarritz, France (7602): Température de l'air & dewpoint: 11.01.2018 01:00:00 - 17.01.2018 01:00:00 (CET)Biarritz, France (7602): Température de l'air 5cm: 11.01.2018 01:00:00 - 17.01.2018 01:00:00 (CET)Biarritz, France (7602): Température de l'air -20cm & Température de l'air -100cm: 11.01.2018 01:00:00 - 17.01.2018 01:00:00 (CET)Biarritz, France (7602): Vitesse du vent & gusts: 11.01.2018 01:00:00 - 17.01.2018 01:00:00 (CET)Biarritz, France (7602): Direction du vent: 11.01.2018 01:00:00 - 17.01.2018 01:00:00 (CET)Biarritz, France (7602): reduced air pressure: 11.01.2018 01:00:00 - 17.01.2018 01:00:00 (CET)Biarritz, France (7602): visibility: 11.01.2018 01:00:00 - 17.01.2018 01:00:00 (CET)Biarritz, France (7602): Ensoleillement: 11.01.2018 01:00:00 - 17.01.2018 01:00:00 (CET)Biarritz, France (7602): Quantités de précipitations: 11.01.2018 01:00:00 - 17.01.2018 01:00:00 (CET)
Date & Time tt [°C] td [°C] tt 5cm [°C] tt -20cm [°C] tt -100cm [°C] ff [km/h] ff [knt] fx [km/h] fx [knt] dd ppp [hPa] vv [km] sd [min] rr [mm]
17.01.2018 01:00:00 13,0 10,9 12,1 10,4 10,3 39 21 61 33 W 1022,6 10 0 0,0
17.01.2018 00:00:00 12,8 11,2 12,1 10,3 10,3 34 18 64 35 W 1022,1 10 0 0,4
16.01.2018 23:00:00 12,8 12,2 11,9 10,3 10,3 31 17 51 28 W 1022,3 6 0 2,4
16.01.2018 22:00:00 12,6 11,3 12,1 10,3 10,3 16 9 37 20 WSW 1021,5 7 0 1,2
16.01.2018 21:00:00 13,8 11,0 12,5 10,2 10,3 24 13 41 22 W 1021,6 10 0 0,0
16.01.2018 20:00:00 14,1 10,7 13,6 10,1 10,3 29 16 43 23 W 1021,6 10 0 0,0
16.01.2018 19:00:00 13,8 11,0 13,6 10,1 10,3 22 12 46 25 W 1021,5 10 0 0,0
16.01.2018 18:00:00 14,0 10,8 13,5 10,0 10,2 28 15 47 25 W 1021,7 16 0 0,0
16.01.2018 17:00:00 13,8 10,8 13,6 9,9 10,2 23 13 46 25 W 1021,7 18 0 0,0
16.01.2018 16:00:00 13,8 10,6 13,4 9,8 10,2 25 13 47 25 W 1022,2 20 0 0,0
16.01.2018 15:00:00 13,4 10,7 12,5 9,7 10,2 22 12 35 19 W 1022,8 18 0 0,0
16.01.2018 14:00:00 12,9 11,3 12,1 9,7 10,3 14 8 31 17 WSW 1023,1 15 0 0,0
16.01.2018 13:00:00 12,4 11,1 12,6 9,5 10,2 17 9 32 18 WSW 1023,9 11 6 0,0
16.01.2018 12:00:00 12,1 11,6 11,5 9,5 10,3 16 9 36 19 WSW 1024,6 11 3 0,2
16.01.2018 11:00:00 11,2 10,9 11,1 9,4 10,2 15 8 33 18 WSW 1024,4 3,4 0 1,2
16.01.2018 10:00:00 11,1 10,6 11,1 9,3 10,2 15 8 47 25 SW 1024,0 2,3 0 -
16.01.2018 09:00:00 11,5 10,7 11,3 9,3 10,2 19 10 45 24 WSW 1023,4 1,5 0 1,6
16.01.2018 08:00:00 11,6 10,7 11,0 9,2 10,2 25 14 45 24 W 1022,7 3,7 0 0,6
16.01.2018 07:00:00 11,2 10,3 10,9 9,2 10,2 16 8 34 18 WSW 1021,8 3,8 0 1,4
16.01.2018 06:00:00 11,5 10,2 10,6 9,1 10,2 19 10 35 19 WSW 1021,4 4,6 0 0,6
16.01.2018 05:00:00 11,1 9,7 10,5 9,1 10,2 17 9 39 21 WSW 1021,3 4,3 0 0,8
16.01.2018 04:00:00 11,7 9,4 10,7 9,0 10,2 27 15 50 27 W 1021,6 5 0 0,2
16.01.2018 03:00:00 12,9 8,4 11,1 9,0 10,2 18 10 40 21 SW 1020,6 19 0 0,0
16.01.2018 02:00:00 11,4 8,6 10,3 8,9 10,2 20 11 48 26 SW 1021,3 17 0 0,0
16.01.2018 01:00:00 11,8 8,8 10,3 8,9 10,2 22 12 49 26 WSW 1021,6 12 0 0,0
16.01.2018 00:00:00 11,6 8,1 10,1 8,9 10,2 21 11 50 27 WSW 1021,6 11 0 0,0
15.01.2018 23:00:00 11,5 7,0 10,5 8,9 10,2 14 8 35 19 SW 1021,4 60 0 0,0
15.01.2018 22:00:00 10,7 6,3 9,5 8,9 10,2 13 7 31 17 SSW 1021,3 41 0 0,0
15.01.2018 21:00:00 10,8 4,5 9,1 8,9 10,2 10 5 25 13 SSW 1021,4 15 0 0,0
15.01.2018 20:00:00 11,9 2,9 10,8 8,9 10,2 11 6 30 16 SW 1021,5 54 0 0,0
15.01.2018 19:00:00 11,7 2,2 10,7 8,9 10,2 9 5 39 21 SW 1021,1 40 0 0,0
15.01.2018 18:00:00 12,3 2,2 10,9 8,9 10,2 16 8 38 20 SW 1020,6 52 0 0,0
15.01.2018 17:00:00 12,0 4,0 11,7 8,7 10,2 5 3 20 11 SSW 1021,0 10 0 0,0
15.01.2018 16:00:00 12,4 5,1 12,6 8,6 10,2 9 5 23 12 SW 1020,8 60 4 0,0
15.01.2018 15:00:00 12,4 5,3 13,3 8,5 10,2 10 5 21 11 SW 1021,2 59 0 0,0
15.01.2018 14:00:00 12,1 5,5 12,9 8,3 10,2 9 5 26 14 SSW 1022,3 60 27 0,0
15.01.2018 13:00:00 12,3 5,9 12,0 8,2 10,2 14 8 26 14 SW 1022,8 33 38 0,0
15.01.2018 12:00:00 11,7 6,6 12,3 8,1 10,2 11 6 23 12 SW 1023,8 51 48 0,0
15.01.2018 11:00:00 10,5 7,6 9,9 8,0 10,2 7 4 16 8 SW 1024,9 53 39 0,0
15.01.2018 10:00:00 8,6 6,4 7,0 8,1 10,2 5 3 10 6 WSW 1024,7 59 7 0,0
15.01.2018 09:00:00 7,9 6,4 7,4 8,1 10,3 4 2 14 8 SSW 1024,3 50 0 0,2
15.01.2018 08:00:00 7,9 6,7 7,3 8,0 10,2 9 5 16 9 SW 1023,8 10 0 0,0
15.01.2018 07:00:00 7,6 6,2 7,1 8,1 10,3 7 4 16 8 SW 1023,5 54 0 1,2
15.01.2018 06:00:00 7,6 6,5 7,4 8,1 10,3 9 5 19 10 SW 1023,4 8 0 0,4
15.01.2018 05:00:00 7,6 6,7 7,3 8,0 10,3 8 4 22 12 SW 1023,4 5 0 2,0
15.01.2018 04:00:00 7,5 6,6 7,4 8,0 10,2 12 6 23 12 SW 1023,3 13 0 0,6
15.01.2018 03:00:00 7,6 6,5 7,1 8,1 10,3 11 6 24 13 SW 1023,2 10 0 1,2
15.01.2018 02:00:00 7,6 6,1 7,0 8,1 10,2 8 4 19 10 SW 1023,0 10 0 0,4
15.01.2018 01:00:00 7,4 6,3 6,1 8,1 10,3 9 5 25 14 SW 1023,0 48 0 0,0
15.01.2018 00:00:00 7,6 6,4 6,9 8,1 10,3 10 6 26 14 SW 1023,0 50 0 0,0
14.01.2018 23:00:00 7,9 6,5 7,0 8,1 10,3 11 6 21 11 WSW 1022,1 10 0 0,0
14.01.2018 22:00:00 7,6 6,7 7,5 8,2 10,3 10 5 23 12 SW 1021,6 46 0 0,0
14.01.2018 21:00:00 7,8 7,0 7,3 8,1 10,3 10 5 30 16 SW 1021,2 16 0 0,4
14.01.2018 20:00:00 7,3 6,7 7,2 8,1 10,3 10 6 24 13 SW 1020,4 10 0 1,0
14.01.2018 19:00:00 7,4 6,7 7,1 8,2 10,3 9 5 22 12 SSW 1019,8 6 0 4,0
14.01.2018 18:00:00 7,2 6,3 7,1 8,2 10,3 11 6 24 13 SW 1019,3 5 0 1,8
14.01.2018 17:00:00 8,0 7,1 6,5 8,2 10,3 7 4 35 19 SSW 1018,4 19 0 4,9
14.01.2018 16:00:00 6,7 5,6 6,4 8,1 10,3 14 8 43 23 WSW 1018,3 2,9 0 6,7
14.01.2018 15:00:00 8,7 7,6 8,2 8,1 10,3 22 12 42 23 WSW 1017,0 4,6 0 3,4
14.01.2018 14:00:00 8,7 7,6 7,7 8,0 10,3 21 12 48 26 W 1016,9 3,6 0 6,0
14.01.2018 13:00:00 8,1 7,2 7,5 8,0 10,3 18 10 39 21 WSW 1017,0 6 0 2,1
14.01.2018 12:00:00 7,7 6,8 7,6 8,0 10,3 18 10 37 20 SW 1017,4 8 0 2,4
14.01.2018 11:00:00 7,6 6,4 7,2 8,0 10,3 16 8 31 17 SW 1017,1 15 0 2,2
14.01.2018 10:00:00 7,6 6,1 6,7 8,0 10,3 16 9 35 19 SW 1016,7 10 0 0,0
14.01.2018 09:00:00 7,1 5,7 6,5 8,0 10,3 13 7 24 13 SW 1016,1 17 0 0,4
14.01.2018 08:00:00 6,8 5,6 6,5 8,0 10,3 10 6 30 16 SW 1015,7 9 0 1,6
14.01.2018 07:00:00 7,2 5,8 6,9 8,0 10,3 16 9 38 21 WSW 1015,3 18 0 0,4
14.01.2018 06:00:00 7,6 5,4 6,9 8,1 10,3 16 9 38 20 WSW 1015,1 60 0 0,0
14.01.2018 05:00:00 7,1 5,1 6,4 8,1 10,3 16 9 33 18 SW 1015,1 60 0 0,0
14.01.2018 04:00:00 6,6 5,5 6,0 8,1 10,3 9 5 19 10 SW 1015,3 60 0 0,2
14.01.2018 03:00:00 6,2 5,2 6,0 8,1 10,3 8 4 18 10 SSW 1015,4 15 0 0,6
14.01.2018 02:00:00 6,4 5,5 6,2 8,1 10,3 9 5 19 10 S 1015,6 10 0 1,4
14.01.2018 01:00:00 6,7 5,3 6,4 8,2 10,3 9 5 23 12 SSW 1016,1 7 0 1,2
14.01.2018 00:00:00 7,4 6,3 7,0 8,1 10,3 10 6 21 12 WSW 1016,3 8 0 0,6
13.01.2018 23:00:00 7,6 6,1 7,0 8,1 10,3 7 4 25 13 SW 1016,0 8 0 0,6
13.01.2018 22:00:00 8,6 5,2 7,5 8,2 10,3 12 7 26 14 WSW 1016,0 17 0 0,0
13.01.2018 21:00:00 9,8 2,6 9,2 8,2 10,4 12 7 27 15 SW 1015,5 55 0 0,0
13.01.2018 20:00:00 10,6 4,1 8,4 8,2 10,4 8 5 18 10 WSW 1015,0 45 0 0,0
13.01.2018 19:00:00 10,1 1,5 8,0 8,1 10,3 7 4 24 13 WSW 1014,6 60 0 0,0
13.01.2018 18:00:00 11,0 1,5 10,0 8,1 10,3 9 5 27 15 SSW 1014,0 60 15 0,0
13.01.2018 17:00:00 11,4 2,1 11,0 8,0 10,4 15 8 29 15 S 1013,8 60 0 0,0
13.01.2018 16:00:00 11,9 2,3 11,9 7,9 10,4 8 5 22 12 SSW 1014,0 60 0 0,0
13.01.2018 15:00:00 12,3 2,4 12,4 7,7 10,4 7 4 22 12 SW 1014,2 60 0 0,0
13.01.2018 14:00:00 12,4 2,5 13,2 7,5 10,4 16 9 32 17 SSW 1014,4 60 23 0,0
13.01.2018 13:00:00 13,0 1,6 13,5 7,4 10,4 10 6 27 15 SSW 1014,5 55 26 0,0
13.01.2018 12:00:00 12,7 1,1 11,1 7,4 10,4 5 3 22 12 S 1015,2 10 34 0,0
13.01.2018 11:00:00 7,9 2,4 5,8 7,4 10,4 5 3 13 7 - 1015,7 10 0 0,0
13.01.2018 10:00:00 5,1 2,1 4,2 7,4 10,4 4 2 15 8 NE 1015,5 44 0 0,0
13.01.2018 09:00:00 4,4 2,6 4,0 7,4 10,4 9 5 17 9 E 1015,1 59 0 0,0
13.01.2018 08:00:00 4,2 2,5 3,5 7,5 10,4 11 6 18 10 E 1015,3 60 0 0,0
13.01.2018 07:00:00 4,4 2,7 4,0 7,6 10,4 11 6 20 11 ENE 1015,2 60 0 0,0
13.01.2018 06:00:00 4,1 2,9 4,0 7,6 10,4 11 6 16 9 E 1015,8 60 0 0,0
13.01.2018 05:00:00 3,9 2,9 3,7 7,7 10,4 11 6 18 10 E 1016,3 10 0 0,0
13.01.2018 04:00:00 4,0 3,1 3,0 7,8 10,4 11 6 14 8 E 1017,2 58 0 0,0
13.01.2018 03:00:00 3,3 2,3 3,0 7,9 10,4 10 5 15 8 ESE 1018,3 45 0 0,0
13.01.2018 02:00:00 4,4 3,2 3,4 7,9 10,4 11 6 18 10 E 1019,3 45 0 0,0
13.01.2018 01:00:00 4,0 3,1 3,5 8,1 10,5 9 5 17 9 E 1020,0 36 0 0,0
13.01.2018 00:00:00 4,7 3,5 4,0 8,1 10,5 9 5 17 9 E 1020,8 37 0 0,0
12.01.2018 23:00:00 4,9 3,9 3,1 8,2 10,5 11 6 12 7 E 1021,4 24 0 0,0
12.01.2018 22:00:00 5,1 4,1 3,8 8,3 10,5 8 4 11 6 ESE 1022,2 10 0 0,0
12.01.2018 21:00:00 6,4 5,2 4,8 8,4 10,5 8 4 13 7 SE 1022,8 10 0 0,0
12.01.2018 20:00:00 8,1 5,9 4,6 8,4 10,5 6 3 8 4 SSE 1023,4 20 0 0,0
12.01.2018 19:00:00 8,7 5,8 4,9 8,4 10,5 4 2 6 3 E 1023,3 48 0 0,0
12.01.2018 18:00:00 9,1 6,0 6,0 8,3 10,5 6 3 8 4 ENE 1023,3 56 0 0,0
12.01.2018 17:00:00 10,7 6,6 9,5 8,2 10,5 5 3 7 4 ENE 1023,6 10 41 0,0
12.01.2018 16:00:00 12,4 7,5 15,0 8,0 10,5 4 2 13 7 W 1023,6 19 60 0,0
12.01.2018 15:00:00 11,3 8,0 11,2 7,8 10,5 11 6 24 13 W 1023,9 20 12 0,0
12.01.2018 14:00:00 12,6 7,5 14,1 7,6 10,6 4 2 13 7 SSW 1024,4 60 57 0,0
12.01.2018 13:00:00 10,9 7,4 12,4 7,4 10,6 5 3 13 7 SSE 1025,5 10 27 0,0
12.01.2018 12:00:00 9,3 8,7 9,0 7,3 10,5 8 4 16 9 SSE 1026,0 10 0 0,0
12.01.2018 11:00:00 8,0 7,4 6,9 7,2 10,6 7 4 14 8 ESE 1026,2 32 18 0,0
12.01.2018 10:00:00 6,7 6,3 6,3 7,2 10,6 8 4 14 7 SE 1025,9 19 0 0,0
12.01.2018 09:00:00 6,6 6,0 6,1 7,2 10,6 6 3 10 5 E 1025,8 11 0 0,0
12.01.2018 08:00:00 6,6 6,0 5,9 7,2 10,6 5 3 9 5 S 1025,4 10 0 0,0
12.01.2018 07:00:00 6,8 6,2 5,4 7,2 10,6 5 3 12 6 S 1025,4 11 0 0,4
12.01.2018 06:00:00 7,3 6,9 6,0 7,2 10,6 9 5 13 7 SW 1025,3 8 0 2,0
12.01.2018 05:00:00 6,0 5,4 3,4 7,3 10,6 6 3 12 7 SSW 1025,2 46 0 0,0
12.01.2018 04:00:00 4,8 3,9 2,7 7,3 10,6 6 3 10 5 S 1025,6 43 0 0,0
12.01.2018 03:00:00 4,8 3,9 2,9 7,4 10,6 8 4 11 6 S 1025,4 53 0 0,0
12.01.2018 02:00:00 4,5 3,3 2,1 7,6 10,7 7 4 10 5 SSW 1025,1 60 0 0,0
12.01.2018 01:00:00 4,0 3,0 2,1 7,6 10,6 6 3 11 6 SSW 1025,2 60 0 0,0
12.01.2018 00:00:00 4,4 3,4 2,0 7,7 10,7 8 4 13 7 S 1025,0 60 0 0,0
11.01.2018 23:00:00 4,0 3,1 1,5 7,8 10,6 7 4 10 5 SSW 1024,5 51 0 0,0
11.01.2018 22:00:00 4,3 3,3 1,7 7,9 10,6 6 3 9 5 S 1024,0 28 0 0,0
11.01.2018 21:00:00 5,2 4,3 4,0 8,0 10,6 7 4 14 7 SW 1023,5 8 0 0,2
11.01.2018 20:00:00 4,9 4,2 2,7 8,1 10,7 8 5 12 6 SW 1022,7 23 0 0,0
11.01.2018 19:00:00 5,0 4,3 4,0 8,1 10,7 4 2 14 7 S 1021,8 38 0 0,0
11.01.2018 18:00:00 5,7 5,0 5,3 8,2 10,7 8 4 21 12 SSW 1020,9 33 0 2,0
11.01.2018 17:00:00 5,9 4,9 5,9 8,2 10,6 10 6 49 26 SW 1020,8 9 0 4,7
11.01.2018 16:00:00 6,2 5,2 6,1 8,2 10,6 23 13 46 25 WSW 1020,3 2,4 0 8,6
11.01.2018 15:00:00 6,4 5,3 6,4 8,2 10,7 17 9 53 28 WSW 1019,6 7 0 1,6
11.01.2018 14:00:00 6,7 5,6 6,6 8,2 10,6 23 12 56 31 SW 1018,7 4,3 0 1,1
11.01.2018 13:00:00 6,6 5,5 6,4 8,1 10,6 14 8 39 21 SSW 1019,2 3,0 5 1,6
11.01.2018 12:00:00 7,1 5,6 6,1 8,1 10,7 22 12 46 25 SW 1019,0 10 2 0,6
11.01.2018 11:00:00 6,2 5,0 6,0 8,2 10,7 16 8 42 23 SW 1019,1 6 1 3,0
11.01.2018 10:00:00 6,9 5,0 5,9 8,2 10,7 16 9 36 20 SW 1018,3 14 0 0,4
11.01.2018 09:00:00 6,6 4,4 5,6 8,2 10,7 16 9 46 25 WSW 1018,1 8 0 4,2
11.01.2018 08:00:00 5,9 4,4 5,5 8,3 10,7 16 9 40 22 SSW 1017,8 4,8 0 1,7
11.01.2018 07:00:00 6,4 4,6 5,2 8,3 10,7 15 8 35 19 WSW 1017,2 10 0 2,2
11.01.2018 06:00:00 5,9 3,9 5,4 8,4 10,7 15 8 53 29 SW 1016,7 43 0 0,6
11.01.2018 05:00:00 7,7 3,9 6,1 8,4 10,7 24 13 51 28 WSW 1016,4 9 0 2,4
11.01.2018 04:00:00 8,4 4,4 6,6 8,5 10,7 21 11 50 27 WSW 1016,3 9 0 0,2
11.01.2018 03:00:00 9,0 3,2 6,9 8,5 10,7 11 6 24 13 SW 1015,8 10 0 0,0
11.01.2018 02:00:00 8,5 3,1 6,5 8,6 10,7 15 8 37 20 SW 1015,9 17 0 0,2
11.01.2018 01:00:00 8,1 3,7 6,5 8,6 10,7 18 10 53 29 SW 1016,0 10 0 0,4

tt = Température de l'air
td = dewpoint
tt 5cm = Température de l'air 5cm
tt -20cm = Température de l'air -20cm
tt -100cm = Température de l'air -100cm
ff = Vitesse du vent
fx = gusts
dd = Direction du vent
ppp = reduced air pressure
vv = visibility
sd = Ensoleillement
rr = Quantités de précipitations

stations d'obs. à proximité